This is the latest recevied weather packets stored in our database for station/object W7BTL. If no packets are shown the sender has not sent any weather packets the latest 10 day(s).
| Time | Temp. | Humidity | Pressure | Rain* | Wind** | Luminosity | Snow |
|---|---|---|---|---|---|---|---|
| 1778121021 | 18.89° C | 63% | 1016.3 hPa | 0 mm | - | 6 W/m² | - |
| 1778120717 | 19.44° C | 62% | 1016.3 hPa | 0 mm | - | 8 W/m² | - |
| 1778120412 | 19.44° C | 61% | 1016.1 hPa | 0 mm | - | 10 W/m² | - |
| 1778120108 | 19.44° C | 61% | 1016 hPa | 0 mm | - | 13 W/m² | - |
| 1778119805 | 19.44° C | 60% | 1016.2 hPa | 0 mm | - | 15 W/m² | - |
| 1778119502 | 20° C | 59% | 1016.1 hPa | 0 mm | - | 17 W/m² | - |
| 1778119199 | 20° C | 58% | 1016 hPa | 0 mm | - | 19 W/m² | - |
| 1778118898 | 20° C | 57% | 1015.8 hPa | 0 mm | - | 21 W/m² | - |
| 1778118595 | 20.56° C | 55% | 1015.9 hPa | 0 mm | - | 22 W/m² | - |
| 1778118291 | 20.56° C | 52% | 1015.8 hPa | 0 mm | - | 24 W/m² | - |
| 1778117987 | 20.56° C | 52% | 1015.8 hPa | 0 mm | - | 25 W/m² | - |
| 1778117684 | 21.11° C | 53% | 1015.7 hPa | 0 mm | - | 27 W/m² | - |
| 1778117381 | 21.11° C | 50% | 1015.8 hPa | 0 mm | - | 28 W/m² | - |
| 1778117078 | 21.67° C | 49% | 1015.8 hPa | 0 mm | - | 30 W/m² | - |
| 1778116774 | 21.67° C | 49% | 1015.5 hPa | 0 mm | - | 31 W/m² | - |
| 1778116472 | 21.67° C | 51% | 1015.5 hPa | 0 mm | - | 33 W/m² | - |
| 1778116172 | 21.67° C | 52% | 1015.6 hPa | 0 mm | - | 34 W/m² | - |
| 1778115867 | 21.67° C | 52% | 1015.6 hPa | 0 mm | - | 35 W/m² | - |
| 1778115564 | 22.22° C | 51% | 1015.7 hPa | 0 mm | - | 36 W/m² | - |
| 1778115261 | 22.22° C | 52% | 1015.5 hPa | 0 mm | - | 38 W/m² | - |
| 1778114958 | 22.22° C | 50% | 1015.5 hPa | 0 mm | - | 39 W/m² | - |
| 1778114654 | 22.22° C | 51% | 1015.6 hPa | 0 mm | - | 40 W/m² | - |
| 1778114352 | 22.78° C | 50% | 1015.7 hPa | 0 mm | - | 42 W/m² | - |
| 1778114047 | 22.78° C | 48% | 1015.7 hPa | 0 mm | - | 43 W/m² | - |
| 1778113743 | 23.33° C | 48% | 1015.6 hPa | 0 mm | - | 45 W/m² | - |
* Rain latest hour (hover to see other rain measurements)
** Current wind speed in m/s (hover to see current wind gust speed)